"Pseudo-MPEC" for ZLB3256

Created 2018 Jun 17 17:18:57 UT using Find_Orb

Click here for an explanation of pseudo-MPECs

 
 Astrometry: 
     ZLB3256  C2018 06 13.41639 22 09 37.59 +04 56 37.3          19.2 GUNEOCPG96
     ZLB3256  C2018 06 13.42164 22 09 38.40 +04 57 14.9          19.5 GUNEOCPG96
     ZLB3256  C2018 06 13.43444 22 09 40.40 +04 58 46.1          19.7 GUNEOCPG96
     ZLB3256  C2018 06 13.46006 22 09 44.34 +05 01 48.9          19.7 GUNEOCPG96
     ZLB3256  C2018 06 13.46125 22 09 44.55 +05 01 57.6          19.9 GUNEOCPG96
     ZLB3256  C2018 06 13.46238 22 09 44.72 +05 02 05.4          19.9 GUNEOCPG96
     ZLB3256  C2018 06 13.46272 22 09 44.75 +05 02 08.1          21.0 GUNEOCPG96
     ZLB3256 IC2018 06 13)jAstrometryhj0L6.#0_mYe[uO!ADa$b[ua9DIC47gxc$ag4F4GL01
     ZLB3256 KC2018 06 131ovfOgJJOOf0$N$Iw!]ih6,FwM5Ca\U0YA__b0c79)=1fc[$RI:^L01
     ZLB3256 KC2018 06 13p7f+4MAC^C9'-V`tqT^Z5290K/!7n6i3DR]Ya:QbLZKZr,J5rcyCL01
     ZLB3256  C2018 06 14.45333 22 12 28.96 +07 00 29.1          18.0 GUNEOCPI52
     ZLB3256  C2018 06 14.45392 22 12 29.08 +07 00 33.5          18.1 GUNEOCPI52
     ZLB3256  C2018 06 14.45451 22 12 29.16 +07 00 35.6                UNEOCPI52
     ZLB3256  C2018 06 14.45509 22 12 29.22 +07 00 38.7                UNEOCPI52
     ZLB3256 KC2018 06 15LU4@EScX/-0/kiq_u39!md[ep+TCn.f@cU:..$f=eQ'0txooe.pXH36
     ZLB3256 KC2018 06 15MRww7,@`:a#u1$SQuredacted;(OWTxL?-CQ4OO1@[Ru9aR/6=3iH36
     ZLB3256 KC2018 06 15nbaQej.si49P1Dd:su[.';)@V5)lR5!%Q,DAn=d(0::UX.(.C75_H36
     ZLB3256 KC2018 06 16t0;09b0w=i(I3Jq*ho)n$;,IFw__rIT\bxLnp;vs(k3iE\Lm`goF104
     ZLB3256 KC2018 06 167oxP.JSc,o%^BMT]J(fJMSmri?e)-4Ox^'(lQ[/]Pivr*0@2Pk_)104
     ZLB3256 KC2018 06 16^1LXvUe1^cIfE;=%U0nQ]0[mQHCv-4?,loaWZEt)1syOy$*dr5G\104
     ZLB3256 KC2018 06 16pn3kcKxyWjnO=P2)J1X#ig;Qhx!6et'Osee,'ycKG[MPSXc\(Nn+H36
     ZLB3256 KC2018 06 16dMYoo1p,wjgDt-C7XEM,uZd^F30++NXdC(v94M^US()`AKH$F(B_H36
     ZLB3256 KC2018 06 16xhrbNW6`uYhKLVx02Qm;ks6dx8Bxte]r-/Z[fJBb)d30A2@S=gH/H36
     ZLB3256  C2018 06 16:_M8QokLZNxB^YWJ]SfAQ_fKl)9nl--?_5k1I?/EWBW(0n!(HRA4P93
     ZLB3256  C2018 06 16W3p(dX5*XNsI_vBIvkS\KcPlSX3gj!_:]JrL.P!'S`WvcSvNEOCPP93

Station data:
(104) San Marcello Pistoiese  (N44.063037 E10.804200)  Italy. 0.40-m f/5
   reflector.
(G96) Mt. Lemmon Survey  (N32.442754 W110.788720)  US/Arizona.  Observers B.
   M. Africano, E. J. Christensen, D. C. Fuls, A. R. Gibbs, A. D. Grauer, J.
   A. Johnson, R. A. Kowalski, S. M. Larson, G. J. Leonard, R. L. Seaman, F.
   C. Shelly. 1.5-m reflector + 10K CCD.
(H36) Sandlot Observatory, Scranton  (N38.797693 W95.706400)  US/Kansas.
   Observer G. Hug. 0.56-m reflector + CCD.
(I52) Steward Observatory, Mt. Lemmon Station  (N32.442547 W110.788920)
   US/Arizona.  Observers B. M. Africano, E. J. Christensen, D. C. Fuls, A.
   R. Gibbs, A. D. Grauer, J. A. Johnson, R. A. Kowalski, S. M. Larson, G. J.
   Leonard, R. L. Seaman, F. C. Shelly. 1.0-m reflector + CCD.
(L01) Višnjan Observatory, Tičan  (N45.290900 E13.749300)  Croatia.  Observer
   K. Korlević. 1.0-m f/2.9 reflector + CCD.
(P93) Space Tracking and Communications Center, JAXA  (N34.672353
   E133.544330)  Japan.

Orbital elements:  ZLB3256
   Perihelion 2018 Aug 6.044536 +/- 1.64 TT =  1:04:07 (JD 2458336.544536)
Epoch 2018 Jun 16.0 TT = JDT 2458285.5   Earth MOID: 0.1215   Ma: 0.0991
M 329.27340 +/- 2.1                 (J2000 ecliptic)          AutoNEOCP
n   0.60195660 +/- 0.0239           Peri.   63.25405 +/- 1.5
a   1.38918235 +/- 0.0368           Node   266.72219 +/- 0.37
e   0.2647048 +/- 0.0165            Incl.   23.58198 +/- 0.6
P   1.64/598.04d           H 20.5   G  0.15   U 10.2  
q 1.02145905 +/- 0.00429    Q 1.75690565 +/- 0.0713
From 25 observations 2018 June 13-16; mean residual 0".53
Residuals in arcseconds: 
180613 G96  .13-  .10-    180613 L01  .32-  .22+    180616 104  .00   .32-    
180613 G96  .23-  .06+    180614 I52  .05+  1.2+    180616 104  .02+  .24-    
180613 G96  .04-  .02-    180614 I52  .48+  1.3+    180616 H36  .06+  .08+    
180613 G96  .37-  .06+    180614 I52  .31+  .85-    180616 H36  .42-  .52-    
180613 G96  .02+  .28+    180614 I52  .13-  1.9-    180616 H36  .28+  .39-    
180613 G96  .05-  .02+    180615 H36  .46+  .29-    180616 P93  .53-  .36+    
180613 G96  .38-  .29+    180615 H36  1.1+  .25+    180616 P93  .75-  .68+    
180613 L01  .55-  .25-    180615 H36  .57+  .69+    
180613 L01  .24+  .08-    180616 104  .61+  .48-    

Ephemerides (geocentric):
Date (UTC) HH   RA              Dec         delta   r     elong  mag " sig PA
---- -- -- --  -------------   -----------  ------ ------ -----  --- ---- ---
2018 06 17 17  22 21 31.296   +13 35 56.90  .26493 1.1046 102.6 20.0  .54 138
2018 06 17 18  22 21 38.296   +13 41 02.54  .26490 1.1045 102.6 20.0  .53 138
2018 06 17 19  22 21 45.298   +13 46 08.19  .26487 1.1044 102.6 20.0  .53 139
2018 06 17 20  22 21 52.301   +13 51 13.86  .26484 1.1043 102.6 20.0  .52 139
2018 06 17 21  22 21 59.306   +13 56 19.54  .26481 1.1041 102.5 20.0  .51 140
2018 06 17 22  22 22 06.312   +14 01 25.24  .26478 1.1040 102.5 20.0  .51 141
2018 06 17 23  22 22 13.320   +14 06 30.94  .26475 1.1039 102.5 20.1  .50 141
2018 06 18 00  22 22 20.329   +14 11 36.66  .26473 1.1038 102.4 20.1  .50 142
2018 06 18 01  22 22 27.340   +14 16 42.38  .26470 1.1036 102.4 20.1  .49 143
2018 06 18 02  22 22 34.353   +14 21 48.11  .26467 1.1035 102.4 20.1  .48 143
2018 06 18 03  22 22 41.367   +14 26 53.84  .26465 1.1034 102.4 20.1  .48 144
2018 06 18 04  22 22 48.383   +14 31 59.58  .26463 1.1032 102.3 20.1  .47 145
2018 06 18 05  22 22 55.400   +14 37 05.32  .26460 1.1031 102.3 20.1  .47 146
2018 06 18 06  22 23 02.419   +14 42 11.06  .26458 1.1030 102.3 20.1  .46 147
2018 06 18 07  22 23 09.440   +14 47 16.80  .26455 1.1029 102.2 20.1  .46 148
2018 06 18 08  22 23 16.463   +14 52 22.54  .26453 1.1027 102.2 20.1  .45 149
2018 06 18 09  22 23 23.487   +14 57 28.27  .26451 1.1026 102.2 20.1  .44 151
2018 06 18 10  22 23 30.513   +15 02 34.00  .26449 1.1025 102.2 20.1  .44 152
2018 06 18 11  22 23 37.540   +15 07 39.73  .26447 1.1024 102.1 20.1  .43 153
2018 06 18 12  22 23 44.570   +15 12 45.45  .26445 1.1022 102.1 20.1  .43 155
2018 06 18 13  22 23 51.601   +15 17 51.16  .26443 1.1021 102.1 20.1  .43 156
2018 06 18 14  22 23 58.633   +15 22 56.86  .26441 1.1020 102.0 20.1  .42 158
2018 06 18 15  22 24 05.668   +15 28 02.54  .26439 1.1018 102.0 20.1  .42 159
2018 06 18 16  22 24 12.704   +15 33 08.22  .26437 1.1017 102.0 20.1  .41 161
2018 06 18 17  22 24 19.742   +15 38 13.88  .26436 1.1016 102.0 20.1  .41 163
2018 06 18 18  22 24 26.782   +15 43 19.53  .26434 1.1015 101.9 20.1  .41 165
2018 06 18 19  22 24 33.823   +15 48 25.16  .26432 1.1013 101.9 20.1  .41 166
2018 06 18 20  22 24 40.867   +15 53 30.77  .26431 1.1012 101.9 20.1  .40 168
2018 06 18 21  22 24 47.912   +15 58 36.36  .26429 1.1011 101.8 20.1  .40 170
2018 06 18 22  22 24 54.959   +16 03 41.93  .26428 1.1010 101.8 20.1  .40 173
2018 06 18 23  22 25 02.008   +16 08 47.48  .26427 1.1008 101.8 20.1  .40 175
2018 06 19 00  22 25 09.058   +16 13 53.00  .26425 1.1007 101.7 20.1  .40 177
2018 06 19 01  22 25 16.111   +16 18 58.50  .26424 1.1006 101.7 20.1  .41 179
2018 06 19 02  22 25 23.165   +16 24 03.98  .26423 1.1005 101.7 20.1  .41   1
2018 06 19 03  22 25 30.222   +16 29 09.42  .26422 1.1003 101.7 20.1  .41   3
2018 06 19 04  22 25 37.280   +16 34 14.84  .26421 1.1002 101.6 20.1  .42   6
2018 06 19 05  22 25 44.340   +16 39 20.23  .26420 1.1001 101.6 20.1  .42   8
2018 06 19 06  22 25 51.402   +16 44 25.58  .26419 1.1000 101.6 20.1  .43  10
2018 06 19 07  22 25 58.466   +16 49 30.90  .26418 1.0998 101.5 20.1  .43  12
2018 06 19 08  22 26 05.531   +16 54 36.19  .26417 1.0997 101.5 20.1  .44  14
2018 06 19 09  22 26 12.599   +16 59 41.44  .26416 1.0996 101.5 20.1  .45  17
2018 06 19 10  22 26 19.669   +17 04 46.66  .26415 1.0995 101.4 20.1  .46  19
2018 06 19 11  22 26 26.740   +17 09 51.83  .26414 1.0993 101.4 20.1  .47  21
2018 06 19 12  22 26 33.814   +17 14 56.97  .26414 1.0992 101.4 20.1  .48  23
2018 06 19 13  22 26 40.890   +17 20 02.06  .26413 1.0991 101.4 20.1  .49  24
2018 06 19 14  22 26 47.967   +17 25 07.11  .26413 1.0990 101.3 20.1  .51  26
2018 06 19 15  22 26 55.047   +17 30 12.12  .26412 1.0988 101.3 20.1  .52  28
2018 06 19 16  22 27 02.128   +17 35 17.08  .26412 1.0987 101.3 20.1  .53  30